[[{"header":{"parameterUnit":"m.s-1","parameterCategory":1,"la1":30.2991,"la2":30.254,"lo1":-89.0895,"lo2":-89.0444,"dy":0.0017,"dx":0.0017,"nx":28,"ny":28,"refTime":"2025-12-18T09:00:00:Z","depth":0,"parameterNumber":2,"parameterNumberName":"U-component_of_WINDS"},"data":[0,0,0,0,0,0,0,0,0,0,0,0,0,0,0,0,0,0,0,0,0,0,0,0,0,0,0,0,0,0,0,0,0,0,0,0,0,0,0,0,0,0,0,0,0,0,0,0,0,0,0,0,0,0,0,0,0,0,-4.2394,-4.2395,0,-4.2428,-4.2428,-4.2429,-4.2273,-4.2269,-4.2264,-4.226,-4.2295,-4.23,-4.2305,0,0,0,0,0,0,0,0,0,0,0,0,0,-4.2195,-4.22,-4.2394,-4.2395,-4.2395,-4.2428,-4.2428,-4.2429,-4.2274,-4.2268,-4.2263,-4.2258,-4.2293,-4.2299,-4.2306,0,0,0,0,0,0,0,0,0,0,0,0,0,-4.2261,-4.2201,-4.2394,-4.2322,-4.2315,-4.2428,-4.2428,-4.2429,-4.2275,-4.2268,-4.2261,-4.2255,-4.2291,-4.2299,-4.2306,-4.249,0,0,-4.233,-4.2333,0,0,0,0,0,0,0,0,-4.2257,-4.2268,-4.2332,-4.2327,-4.232,-4.2339,-4.2371,-4.245,-4.2277,-4.229,-4.226,-4.2252,-4.2315,-4.2321,-4.2342,-4.2492,-4.2493,-4.2331,-4.2336,-4.2339,-4.2341,0,0,0,0,0,0,0,-4.2253,-4.2266,-4.2407,-4.2333,-4.2326,-4.2287,-4.2289,-4.2385,-4.2341,-4.2289,-4.2277,-4.2284,-4.2311,-4.2335,-4.2342,-4.2494,-4.2331,-4.2337,-4.2342,-4.2345,-4.2796,-4.2803,0,0,0,0,0,0,-4.2258,-4.2263,-4.2406,-4.2408,-4.2271,-4.2297,-4.2298,-4.234,-4.2339,-4.2332,-4.2289,-4.2276,-4.2325,-4.2333,-4.2342,-4.2557,-4.2339,-4.2346,-4.235,-4.2789,-4.2798,-4.2806,0,0,0,0,0,0,-4.2254,-4.2272,-4.2405,-4.2333,-4.2347,-4.2307,-4.2355,-4.2344,-4.2368,-4.234,-4.2331,-4.2322,-4.232,-4.2331,-4.2454,-4.2556,-4.235,-4.2357,-4.278,-4.2791,-4.2802,-4.2989,0,0,0,0,0,0,-4.2249,-4.2272,-4.2341,-4.2336,-4.2351,-4.2517,-4.2361,-4.235,-4.2382,-4.2365,-4.2368,-4.2362,-4.2315,-4.2444,-4.2462,-4.2563,-4.2363,-4.2771,-4.2785,-4.2798,-4.2973,-4.3005,-4.3032,0,0,0,0,0,-4.2243,-4.2393,-4.2346,-4.2364,-4.2437,-4.2523,-4.2532,-4.2476,-4.2391,-4.246,-4.2442,-4.2362,-4.2542,-4.2458,-4.2477,-4.2582,-4.2764,-4.2781,-4.2797,-4.296,-4.2999,-4.3031,0,0,0,0,0,0,-4.2412,-4.2391,-4.2338,-4.2491,-4.251,-4.2497,-4.2583,-4.2518,-4.2562,-4.2544,-4.2472,-4.2474,-4.261,-4.2608,-4.2514,-4.2759,-4.2638,-4.266,-4.2756,-4.2792,-4.2821,-4.2818,-4.2369,0,0,0,0,0,-4.2467,-4.2539,-4.2516,-4.2653,-4.2666,-4.2623,-4.2658,-4.2613,-4.263,-4.2637,-4.2628,-4.2648,-4.2708,-4.275,-4.2804,-4.2972,-4.297,-4.3054,-4.3083,-4.3107,-4.3126,-4.3215,-4.3251,-4.286,-4.286,-4.2859,0,0,-4.2581,-4.2579,-4.2628,-4.2687,-4.2697,-4.2772,-4.2631,-4.2717,-4.2773,-4.265,-4.2766,-4.276,-4.2777,-4.2924,-4.2988,-4.2926,-4.3234,-4.3128,-4.3148,-4.3154,-4.3235,-4.3272,-4.3305,-4.2871,-4.2869,-4.2867,0,0,-4.2828,-4.2834,-4.2948,-4.2961,-4.2977,-4.2948,-4.2976,-4.2972,-4.2964,-4.3078,-4.2988,-4.3053,-4.316,-4.3175,-4.3198,-4.3451,-4.3379,-4.3471,-4.3624,-4.3711,-4.3741,-4.3768,-4.3859,-4.3892,-4.349,-4.3491,-4.3491,0,-4.2969,-4.3079,-4.3015,-4.3108,-4.3136,-4.3029,-4.3144,-4.316,-4.3193,-4.3215,-4.3146,-4.3277,-4.3281,-4.343,-4.3492,-4.3513,-4.3542,-4.347,-4.3742,-4.3769,-4.3793,-4.3878,-4.3912,-4.3502,-4.35,-4.3499,-4.3498,0,-4.3251,-4.3329,-4.3419,-4.3454,-4.3493,-4.3597,-4.3549,-4.3595,-4.3547,-4.3525,-4.3643,-4.3644,-4.3697,-4.3729,-4.3682,-4.3871,-4.3833,-4.3754,-4.3631,-4.3842,-4.3921,-4.3953,-4.3518,-4.3514,-4.351,-4.3508,0,0,-4.3605,-4.3603,-4.3638,-4.3652,-4.3662,-4.3721,-4.382,-4.3871,-4.3913,-4.394,-4.4021,-4.4113,-4.4041,-4.4066,-4.402,-4.4097,-4.4297,-4.4008,-4.4008,-4.4062,-4.4505,-4.4564,-4.4603,-4.425,-4.4256,-4.4261,-4.4504,0,-4.3847,-4.4015,-4.3961,-4.4131,-4.4203,-4.4102,-4.4188,-4.4204,-4.4186,-4.4244,-4.4224,-4.4291,-4.419,-4.4205,-4.4276,-4.4258,-4.4385,-4.424,-4.4324,-4.4328,-4.4323,-4.4644,-4.4706,-4.4935,-4.4534,-4.4539,-4.4543,0,-4.4151,-4.419,-4.4368,-4.4366,-4.4394,-4.4472,-4.4515,-4.4571,-4.4587,-4.4569,-4.4598,-4.4536,-4.4632,-4.451,-4.4642,-4.4544,-4.4575,-4.4572,-4.4579,-4.4585,-4.4448,-4.4658,-4.5007,-4.5042,-4.4591,-4.4587,-4.4584,0,-4.4391,-4.4488,-4.4607,-4.4622,-4.4623,-4.4681,-4.4684,-4.4692,-4.4727,-4.4764,-4.4786,-4.4834,-4.4861,-4.49,-4.4853,-4.4768,-4.4992,-4.4865,-4.498,-4.4981,-4.5031,-4.5029,-4.539,-4.5053,-4.5052,-4.5052,-4.5051,0,-4.4667,-4.478,-4.4715,-4.4788,-4.4911,-4.4848,-4.4972,-4.4963,-4.4972,-4.5042,-4.4958,-4.5025,-4.4959,-4.502,-4.4984,-4.5099,-4.5112,-4.51,-4.5089,-4.5107,-4.5109,-4.5126,-4.5109,-4.5061,-4.5059,-4.5057,-4.5055,0,-4.4956,-4.4917,-4.504,-4.503,-4.5031,-4.5122,-4.5114,-4.5181,-4.5157,-4.5247,-4.5264,-4.5227,-4.5295,-4.5252,-4.5321,-4.5296,-4.5446,-4.5414,-4.5441,-4.5432,-4.5549,-4.5538,-4.5934,-4.5983,-4.5615,-4.5618,-4.5621,0,-4.5134,-4.5218,-4.5218,-4.5259,-4.5267,-4.5334,-4.5368,-4.5309,-4.5349,-4.5373,-4.5438,-4.5498,-4.5543,-4.5656,-4.5636,-4.5688,-4.5655,-4.579,-4.5662,-4.5678,-4.5657,-4.5652,-4.566,-4.5816,-4.582,-4.5824,-4.5827,0,-4.5454,-4.543,-4.5483,-4.5531,-4.5574,-4.5609,-4.5636,-4.5674,-4.5615,-4.5663,-4.5731,-4.5767,-4.5837,-4.5898,-4.5941,-4.5944,-4.5877,-4.5867,-4.5896,-4.5916,-4.5928,-4.5923,-4.5511,-4.5858,-4.5855,-4.5853,-4.5851,-4.585,-4.5692,-4.5762,-4.5773,-4.5835,-4.5849,-4.5877,-4.594,-4.5924,-4.598,-4.6032,-4.5994,-4.6075,-4.6088,-4.614,-4.6151,-4.6214,-4.6159,-4.6201,-4.6212,-4.6223,-4.6239,-4.5919,-4.6222,-4.6221,-4.622,-4.6219,-4.6218,0,-4.6007,-4.6009,-4.6067,-4.6108,-4.6157,-4.6089,-4.6115,-4.6161,-4.6233,-4.6251,-4.6298,-4.6376,-4.6435,-4.642,-4.6472,-4.6525,-4.6496,-4.6541,-4.6536,-4.6538,-4.6285,-4.6255,-4.6564,-4.6564,-4.6564,-4.6564,-4.6564,-4.6564,-4.6177,-4.6292,-4.627,-4.6392,-4.6392,-4.6471,-4.6492,-4.6517,-4.6531,-4.6623,-4.6671,-4.6661,-4.6665,-4.6718,-4.6769,-4.6763,-4.6786,-4.6843,-4.6826,-4.659,-4.6556,-4.6523,-4.6494,-4.6849,-4.6849,-4.7073,-4.7075,-4.7077]},{"header":{"parameterUnit":"m.s-1","parameterCategory":1,"la1":30.2991,"la2":30.254,"lo1":-89.0895,"lo2":-89.0444,"dy":0.0017,"dx":0.0017,"nx":28,"ny":28,"refTime":"2025-12-18T09:00:00:Z","depth":0,"parameterNumber":3,"parameterNumberName":"V-component_of_WINDS"},"data":[0,0,0,0,0,0,0,0,0,0,0,0,0,0,0,0,0,0,0,0,0,0,0,0,0,0,0,0,0,0,0,0,0,0,0,0,0,0,0,0,0,0,0,0,0,0,0,0,0,0,0,0,0,0,0,0,0,0,-1.5373,-1.5373,0,-1.544,-1.5441,-1.5442,-1.5457,-1.5457,-1.5456,-1.5456,-1.5524,-1.5527,-1.5529,0,0,0,0,0,0,0,0,0,0,0,0,0,-1.5255,-1.5257,-1.5373,-1.5374,-1.5374,-1.544,-1.5441,-1.5442,-1.5457,-1.5457,-1.5456,-1.5456,-1.5524,-1.5526,-1.5529,0,0,0,0,0,0,0,0,0,0,0,0,0,-1.5312,-1.5257,-1.5373,-1.539,-1.5392,-1.544,-1.5441,-1.5442,-1.5458,-1.5457,-1.5456,-1.5456,-1.5523,-1.5526,-1.5529,-1.5564,0,0,-1.554,-1.5541,0,0,0,0,0,0,0,0,-1.5309,-1.5317,-1.5387,-1.5389,-1.5391,-1.544,-1.5425,-1.5483,-1.5458,-1.5433,-1.5456,-1.5455,-1.5497,-1.5502,-1.5516,-1.5568,-1.5571,-1.554,-1.5542,-1.5544,-1.5545,0,0,0,0,0,0,0,-1.5305,-1.5314,-1.5399,-1.5388,-1.5391,-1.5394,-1.5401,-1.5436,-1.5468,-1.5435,-1.5436,-1.5444,-1.5498,-1.5513,-1.5518,-1.5572,-1.554,-1.5543,-1.5545,-1.5546,-1.5654,-1.5654,0,0,0,0,0,0,-1.5298,-1.531,-1.5397,-1.5402,-1.5348,-1.5396,-1.5405,-1.5425,-1.5468,-1.5473,-1.5445,-1.5444,-1.5508,-1.5514,-1.5521,-1.5564,-1.5544,-1.5547,-1.5549,-1.5653,-1.5654,-1.5655,0,0,0,0,0,0,-1.5296,-1.5306,-1.5395,-1.5356,-1.5368,-1.5399,-1.5422,-1.5427,-1.5442,-1.5475,-1.548,-1.5454,-1.5507,-1.5516,-1.5553,-1.5566,-1.5548,-1.5551,-1.5652,-1.5653,-1.5654,-1.565,0,0,0,0,0,0,-1.5292,-1.5305,-1.5319,-1.5357,-1.537,-1.5427,-1.5423,-1.5429,-1.5448,-1.5448,-1.5486,-1.5491,-1.5508,-1.5548,-1.5557,-1.557,-1.5554,-1.5651,-1.5652,-1.5654,-1.5649,-1.5651,-1.5653,0,0,0,0,0,-1.5288,-1.5315,-1.532,-1.533,-1.5388,-1.5427,-1.5435,-1.5454,-1.5449,-1.5463,-1.5484,-1.549,-1.5563,-1.5552,-1.5561,-1.5577,-1.565,-1.5652,-1.5654,-1.5648,-1.5651,-1.5653,0,0,0,0,0,0,-1.5278,-1.5321,-1.5326,-1.5366,-1.5393,-1.543,-1.5448,-1.5456,-1.5484,-1.5483,-1.5505,-1.5513,-1.5549,-1.5567,-1.5553,-1.5612,-1.5606,-1.561,-1.5599,-1.5602,-1.5603,-1.5598,-1.5557,0,0,0,0,0,-1.5281,-1.531,-1.5345,-1.5377,-1.539,-1.5417,-1.5435,-1.5447,-1.5475,-1.5486,-1.551,-1.5537,-1.5566,-1.5585,-1.5614,-1.5652,-1.566,-1.5667,-1.5669,-1.567,-1.5673,-1.5693,-1.5696,-1.5661,-1.5661,-1.5661,0,0,-1.5287,-1.5313,-1.533,-1.5376,-1.5398,-1.5426,-1.5426,-1.5457,-1.5478,-1.5491,-1.5527,-1.5546,-1.5577,-1.5615,-1.5632,-1.5631,-1.5684,-1.5672,-1.5673,-1.5675,-1.5695,-1.5699,-1.5702,-1.5662,-1.5662,-1.5661,0,0,-1.5311,-1.5335,-1.5364,-1.5386,-1.5419,-1.5437,-1.5443,-1.5479,-1.5491,-1.5529,-1.5539,-1.5564,-1.5614,-1.5635,-1.5653,-1.5684,-1.5691,-1.5693,-1.5702,-1.5721,-1.5724,-1.5727,-1.5737,-1.5741,-1.5696,-1.5696,-1.5696,0,-1.5314,-1.5358,-1.5378,-1.5407,-1.5426,-1.544,-1.5468,-1.5489,-1.553,-1.5542,-1.554,-1.5602,-1.5624,-1.5666,-1.5674,-1.5688,-1.5696,-1.5689,-1.5722,-1.5725,-1.5728,-1.5738,-1.5742,-1.5696,-1.5696,-1.5696,-1.5696,0,-1.5359,-1.5389,-1.5408,-1.5447,-1.5469,-1.5498,-1.5521,-1.554,-1.555,-1.5567,-1.5604,-1.5631,-1.5665,-1.5676,-1.5686,-1.5719,-1.5717,-1.5718,-1.5713,-1.5731,-1.5741,-1.5745,-1.5696,-1.5696,-1.5696,-1.5696,0,0,-1.538,-1.5429,-1.5435,-1.5453,-1.549,-1.5513,-1.5542,-1.5576,-1.5591,-1.5619,-1.5643,-1.5684,-1.5685,-1.5705,-1.5718,-1.5735,-1.5757,-1.5734,-1.5735,-1.5736,-1.5794,-1.5792,-1.5796,-1.5761,-1.5762,-1.5763,-1.5791,0,-1.5408,-1.5461,-1.5479,-1.5523,-1.555,-1.5562,-1.5587,-1.5612,-1.5629,-1.5654,-1.5673,-1.5701,-1.5701,-1.5713,-1.573,-1.575,-1.5768,-1.5749,-1.5783,-1.5784,-1.5774,-1.5802,-1.58,-1.5826,-1.5795,-1.5796,-1.5796,0,-1.5449,-1.5477,-1.5523,-1.5556,-1.5568,-1.559,-1.5621,-1.5645,-1.5674,-1.5685,-1.5706,-1.5717,-1.5747,-1.574,-1.5781,-1.5767,-1.5782,-1.5794,-1.5796,-1.5799,-1.5791,-1.5805,-1.5834,-1.5838,-1.5802,-1.5802,-1.5801,0,-1.5458,-1.5507,-1.5541,-1.5556,-1.5595,-1.561,-1.5627,-1.5655,-1.5673,-1.57,-1.5712,-1.5742,-1.5759,-1.5782,-1.58,-1.5794,-1.5839,-1.5834,-1.5848,-1.5848,-1.5857,-1.5856,-1.5888,-1.5868,-1.5868,-1.5868,-1.5868,0,-1.5488,-1.5515,-1.5545,-1.5566,-1.5597,-1.5617,-1.5646,-1.5664,-1.5688,-1.5712,-1.5725,-1.5746,-1.577,-1.5795,-1.5809,-1.584,-1.5848,-1.5857,-1.586,-1.5855,-1.5854,-1.5865,-1.5864,-1.5869,-1.5868,-1.5868,-1.5868,0,-1.5504,-1.5525,-1.5562,-1.5596,-1.5605,-1.5626,-1.5655,-1.5675,-1.5692,-1.5722,-1.573,-1.5756,-1.5786,-1.5807,-1.5845,-1.5855,-1.5888,-1.5891,-1.5878,-1.588,-1.5892,-1.589,-1.5932,-1.5938,-1.5914,-1.5915,-1.5915,0,-1.5521,-1.5542,-1.5578,-1.5595,-1.5612,-1.5639,-1.5657,-1.5678,-1.5696,-1.573,-1.5745,-1.5776,-1.5801,-1.5847,-1.587,-1.5899,-1.5903,-1.5915,-1.5907,-1.5901,-1.5902,-1.59,-1.5902,-1.5916,-1.5916,-1.5917,-1.5917,0,-1.5549,-1.5558,-1.5584,-1.5614,-1.5636,-1.5661,-1.5685,-1.5698,-1.5723,-1.5743,-1.5773,-1.5793,-1.5831,-1.5861,-1.5892,-1.5909,-1.5916,-1.5919,-1.5924,-1.5919,-1.591,-1.5914,-1.5881,-1.5918,-1.5918,-1.5918,-1.5918,-1.5918,-1.5565,-1.5584,-1.5612,-1.5641,-1.5661,-1.5684,-1.5704,-1.5723,-1.5749,-1.5782,-1.5792,-1.5823,-1.585,-1.5892,-1.5909,-1.5933,-1.5933,-1.594,-1.5941,-1.5943,-1.5942,-1.5906,-1.5939,-1.5939,-1.5939,-1.5939,-1.5939,0,-1.5593,-1.5611,-1.5637,-1.5671,-1.5693,-1.5699,-1.5726,-1.5744,-1.5772,-1.5796,-1.582,-1.5855,-1.5883,-1.5907,-1.5937,-1.5951,-1.5956,-1.5958,-1.5957,-1.5961,-1.5941,-1.5934,-1.5954,-1.5954,-1.5954,-1.5954,-1.5954,-1.5954,-1.561,-1.5642,-1.5654,-1.5696,-1.5714,-1.5745,-1.576,-1.578,-1.58,-1.5837,-1.5861,-1.5877,-1.5901,-1.5932,-1.5958,-1.5964,-1.5974,-1.5976,-1.5983,-1.5964,-1.5962,-1.5961,-1.5954,-1.5978,-1.5978,-1.6,-1.6,-1.6]}]]